Tiempo cada hora Abercarn

Hoy, 24 Octubre, Sábado

Tiempo Temperatura Precipitaciones Viento Presión Humedad
00:00 +5°C° 0 mm 6 mps 737 mmHg 81%
01:00 +7°C° 0 mm 6 mps 737 mmHg 81%
02:00 +6°C° 0 mm 7 mps 736 mmHg 80%
03:00 +8°C° 0 mm 7 mps 735 mmHg 80%
04:00 +9°C° 0 mm 8 mps 734 mmHg 81%
05:00 +9°C° 0 mm 8 mps 734 mmHg 83%
06:00 +10°C° 0 mm 8 mps 733 mmHg 85%
07:00 +10°C° 0.2 mm 9 mps 732 mmHg 86%
08:00 +11°C° 0.2 mm 9 mps 732 mmHg 87%
09:00 +11°C° 0.2 mm 10 mps 731 mmHg 88%
10:00 +12°C° 0.5 mm 10 mps 731 mmHg 88%
11:00 +12°C° 0.5 mm 10 mps 730 mmHg 87%
12:00 +12°C° 0.5 mm 11 mps 730 mmHg 86%
13:00 +11°C° 1.6 mm 9 mps 729 mmHg 88%
14:00 +10°C° 1.6 mm 8 mps 729 mmHg 90%
15:00 +9°C° 1.6 mm 6 mps 728 mmHg 92%
16:00 +8°C° 1 mm 5 mps 728 mmHg 92%
17:00 +9°C° 1 mm 3 mps 727 mmHg 92%
18:00 +8°C° 1 mm 2 mps 727 mmHg 92%
19:00 +8°C° 2.2 mm 2 mps 727 mmHg 93%
20:00 +8°C° 2.2 mm 3 mps 726 mmHg 94%
21:00 +7°C° 2.2 mm 4 mps 726 mmHg 95%
22:00 +7°C° 2.3 mm 4 mps 726 mmHg 93%
23:00 +7°C° 2.3 mm 5 mps 727 mmHg 91%

Mañana, 25 Octubre, Domingo

Tiempo Temperatura Precipitaciones Viento Presión Humedad
00:00 +7°C° 2.3 mm 6 mps 727 mmHg 89%
01:00 +7°C° 0.2 mm 6 mps 727 mmHg 88%
02:00 +5°C° 0.2 mm 6 mps 727 mmHg 87%
03:00 +5°C° 0.2 mm 6 mps 727 mmHg 87%
04:00 +5°C° 0.1 mm 6 mps 727 mmHg 87%
05:00 +5°C° 0.1 mm 6 mps 727 mmHg 87%
06:00 +5°C° 0.1 mm 7 mps 727 mmHg 87%
07:00 +5°C° 0.2 mm 7 mps 727 mmHg 86%
08:00 +6°C° 0.2 mm 7 mps 727 mmHg 85%
09:00 +8°C° 0.2 mm 7 mps 728 mmHg 84%
10:00 +7°C° 0.3 mm 8 mps 727 mmHg 81%
11:00 +9°C° 0.3 mm 8 mps 727 mmHg 79%
12:00 +9°C° 0.3 mm 8 mps 727 mmHg 76%
13:00 +9°C° 0.4 mm 7 mps 727 mmHg 78%
14:00 +9°C° 0.4 mm 7 mps 727 mmHg 79%
15:00 +8°C° 0.4 mm 7 mps 727 mmHg 80%
16:00 +7°C° 0.2 mm 6 mps 727 mmHg 83%
17:00 +6°C° 0.2 mm 5 mps 727 mmHg 85%
18:00 +5°C° 0.2 mm 5 mps 728 mmHg 87%
19:00 +6°C° 0.1 mm 5 mps 728 mmHg 87%
20:00 +6°C° 0.1 mm 5 mps 728 mmHg 87%
21:00 +5°C° 0.1 mm 6 mps 728 mmHg 87%
22:00 +5°C° 0.2 mm 6 mps 728 mmHg 87%
23:00 +5°C° 0.2 mm 6 mps 728 mmHg 87%

Pasado mañana, 26 Octubre, Lunes

Tiempo Temperatura Precipitaciones Viento Presión Humedad
00:00 +5°C° 0.2 mm 7 mps 728 mmHg 87%
01:00 +6°C° 0.3 mm 7 mps 728 mmHg 87%
02:00 +6°C° 0.3 mm 7 mps 728 mmHg 86%
03:00 +6°C° 0.3 mm 7 mps 727 mmHg 86%
04:00 +6°C° 0.3 mm 7 mps 727 mmHg 87%
05:00 +6°C° 0.3 mm 7 mps 727 mmHg 88%
06:00 +6°C° 0.3 mm 8 mps 727 mmHg 89%
07:00 +6°C° 0.8 mm 8 mps 727 mmHg 88%
08:00 +7°C° 0.8 mm 8 mps 727 mmHg 87%
09:00 +7°C° 0.8 mm 8 mps 727 mmHg 86%
10:00 +9°C° 0.2 mm 8 mps 727 mmHg 83%
11:00 +9°C° 0.2 mm 8 mps 728 mmHg 80%
12:00 +9°C° 0.2 mm 8 mps 729 mmHg 77%
13:00 +9°C° 0.1 mm 8 mps 729 mmHg 77%
14:00 +9°C° 0.1 mm 8 mps 729 mmHg 77%
15:00 +9°C° 0.1 mm 7 mps 729 mmHg 78%
16:00 +8°C° 0.1 mm 7 mps 730 mmHg 81%
17:00 +7°C° 0.1 mm 6 mps 730 mmHg 83%
18:00 +6°C° 0.1 mm 5 mps 731 mmHg 86%
19:00 +6°C° 0 mm 5 mps 731 mmHg 87%
20:00 +6°C° 0 mm 5 mps 731 mmHg 88%
21:00 +5°C° 0 mm 4 mps 731 mmHg 89%
22:00 +5°C° 0 mm 4 mps 731 mmHg 89%
23:00 +5°C° 0 mm 4 mps 731 mmHg 89%

, 27 Octubre, Martes

Tiempo Temperatura Precipitaciones Viento Presión Humedad
00:00 +5°C° 0 mm 4 mps 731 mmHg 88%
01:00 +4°C° 0 mm 3 mps 731 mmHg 88%
02:00 +4°C° 0 mm 3 mps 731 mmHg 88%
03:00 +4°C° 0 mm 3 mps 731 mmHg 88%
04:00 +5°C° 0 mm 3 mps 731 mmHg 88%
05:00 +5°C° 0 mm 4 mps 730 mmHg 88%
06:00 +6°C° 0 mm 4 mps 730 mmHg 89%
07:00 +6°C° 0.3 mm 5 mps 729 mmHg 91%
08:00 +7°C° 0.3 mm 5 mps 728 mmHg 93%
09:00 +7°C° 0.3 mm 6 mps 728 mmHg 95%
10:00 +8°C° 1 mm 7 mps 727 mmHg 95%
11:00 +9°C° 1 mm 8 mps 726 mmHg 95%
12:00 +10°C° 1 mm 9 mps 726 mmHg 95%
13:00 +8°C° 0.6 mm 9 mps 726 mmHg 89%
14:00 +8°C° 0.6 mm 9 mps 726 mmHg 83%
15:00 +7°C° 0.6 mm 9 mps 726 mmHg 77%
16:00 +6°C° 0 mm 8 mps 726 mmHg 79%
17:00 +6°C° 0 mm 7 mps 727 mmHg 80%
18:00 +5°C° 0 mm 7 mps 728 mmHg 81%
19:00 +5°C° 0.1 mm 7 mps 728 mmHg 82%
20:00 +5°C° 0.1 mm 7 mps 728 mmHg 84%
21:00 +5°C° 0.1 mm 7 mps 728 mmHg 85%
22:00 +5°C° 0.1 mm 7 mps 728 mmHg 85%
23:00 +5°C° 0.1 mm 7 mps 727 mmHg 86%

27 Octubre, Martes

Tiempo Temperatura Precipitaciones Viento Presión Humedad
00:00 +5°C° 0 mm 4 mps 731 mmHg 88%
01:00 +4°C° 0 mm 3 mps 731 mmHg 88%
02:00 +4°C° 0 mm 3 mps 731 mmHg 88%
03:00 +4°C° 0 mm 3 mps 731 mmHg 88%
04:00 +5°C° 0 mm 3 mps 731 mmHg 88%
05:00 +5°C° 0 mm 4 mps 730 mmHg 88%
06:00 +6°C° 0 mm 4 mps 730 mmHg 89%
07:00 +6°C° 0.3 mm 5 mps 729 mmHg 91%
08:00 +7°C° 0.3 mm 5 mps 728 mmHg 93%
09:00 +7°C° 0.3 mm 6 mps 728 mmHg 95%
10:00 +8°C° 1 mm 7 mps 727 mmHg 95%
11:00 +9°C° 1 mm 8 mps 726 mmHg 95%
12:00 +10°C° 1 mm 9 mps 726 mmHg 95%
13:00 +8°C° 0.6 mm 9 mps 726 mmHg 89%
14:00 +8°C° 0.6 mm 9 mps 726 mmHg 83%
15:00 +7°C° 0.6 mm 9 mps 726 mmHg 77%
16:00 +6°C° 0 mm 8 mps 726 mmHg 79%
17:00 +6°C° 0 mm 7 mps 727 mmHg 80%
18:00 +5°C° 0 mm 7 mps 728 mmHg 81%
19:00 +5°C° 0.1 mm 7 mps 728 mmHg 82%
20:00 +5°C° 0.1 mm 7 mps 728 mmHg 84%
21:00 +5°C° 0.1 mm 7 mps 728 mmHg 85%
22:00 +5°C° 0.1 mm 7 mps 728 mmHg 85%
23:00 +5°C° 0.1 mm 7 mps 727 mmHg 86%

28 Octubre, Miércoles

Tiempo Temperatura Precipitaciones Viento Presión Humedad
00:00 +5°C° 0.1 mm 7 mps 727 mmHg 86%
01:00 +5°C° 0.2 mm 8 mps 727 mmHg 86%
02:00 +6°C° 0.2 mm 8 mps 726 mmHg 86%
03:00 +6°C° 0.2 mm 9 mps 726 mmHg 86%
04:00 +6°C° 0.3 mm 9 mps 725 mmHg 85%
05:00 +6°C° 0.3 mm 9 mps 725 mmHg 84%
06:00 +6°C° 0.3 mm 9 mps 725 mmHg 84%
07:00 +7°C° 0.5 mm 10 mps 725 mmHg 83%
08:00 +7°C° 0.5 mm 10 mps 725 mmHg 83%
09:00 +7°C° 0.5 mm 10 mps 725 mmHg 83%
10:00 +7°C° 0.5 mm 11 mps 725 mmHg 83%
11:00 +7°C° 0.5 mm 11 mps 725 mmHg 82%
12:00 +7°C° 0.5 mm 12 mps 725 mmHg 82%
13:00 +7°C° 1.6 mm 13 mps 725 mmHg 82%
14:00 +7°C° 1.6 mm 13 mps 725 mmHg 82%
15:00 +6°C° 1.6 mm 14 mps 725 mmHg 83%
16:00 +6°C° 0.5 mm 14 mps 725 mmHg 81%
17:00 +6°C° 0.5 mm 14 mps 726 mmHg 80%
18:00 +6°C° 0.5 mm 14 mps 726 mmHg 79%
19:00 +7°C° 0.1 mm 13 mps 727 mmHg 78%
20:00 +7°C° 0.1 mm 13 mps 728 mmHg 77%
21:00 +7°C° 0.1 mm 13 mps 729 mmHg 76%
22:00 +7°C° 0.2 mm 12 mps 729 mmHg 77%
23:00 +7°C° 0.2 mm 12 mps 730 mmHg 78%

29 Octubre, Jueves

Tiempo Temperatura Precipitaciones Viento Presión Humedad
00:00 +7°C° 0.2 mm 11 mps 731 mmHg 78%
01:00 +7°C° 0 mm 11 mps 732 mmHg 78%
02:00 +7°C° 0 mm 10 mps 732 mmHg 78%
03:00 +7°C° 0 mm 9 mps 732 mmHg 78%
04:00 +7°C° 0.9 mm 9 mps 732 mmHg 84%
05:00 +7°C° 0.9 mm 9 mps 732 mmHg 89%
06:00 +8°C° 0.9 mm 9 mps 732 mmHg 94%
07:00 +8°C° 2.6 mm 10 mps 731 mmHg 94%
08:00 +9°C° 2.6 mm 11 mps 731 mmHg 94%
09:00 +10°C° 2.6 mm 12 mps 731 mmHg 94%
10:00 +10°C° 2.2 mm 12 mps 731 mmHg 94%
11:00 +10°C° 2.2 mm 12 mps 731 mmHg 94%
12:00 +12°C° 2.2 mm 11 mps 731 mmHg 94%
13:00 +12°C° 2.5 mm 12 mps 731 mmHg 94%
14:00 +12°C° 2.5 mm 12 mps 731 mmHg 94%
15:00 +12°C° 2.5 mm 12 mps 731 mmHg 93%
16:00 +12°C° 0.5 mm 12 mps 732 mmHg 91%
17:00 +11°C° 0.5 mm 11 mps 732 mmHg 89%
18:00 +9°C° 0.5 mm 10 mps 733 mmHg 87%
19:00 +10°C° 0.6 mm 9 mps 733 mmHg 89%
20:00 +9°C° 0.6 mm 8 mps 734 mmHg 91%
21:00 +9°C° 0.6 mm 7 mps 734 mmHg 93%
22:00 +9°C° 0.7 mm 6 mps 734 mmHg 93%
23:00 +9°C° 0.7 mm 5 mps 734 mmHg 93%
Mostrar más

Necesitamos Su Consentimiento

Meteoprog y nuestros Proveedores de Servicios pueden almacenar y acceder a sus datos personales como cookies, identificadores de dispositivo u otras tecnologías similares de su dispositivo y procesar dichos datos para personalizar contenido y anuncios, además de ofrecer funciones de redes sociales y analizar el tráfico.

  • Almacenar y/o acceder a información en su dispositivo

    Se puede almacenar o acceder a cookies, identificadores de dispositivo u otra información de su dispositivo para los fines anteriormente indicados.

  • Anuncios y contenido personalizados, medición de anuncios y contenido, percepciones del público, y desarrollo de productos

    Los anuncios y el contenido pueden personalizarse en base a su perfil. Se pueden añadir más datos para personalizar mejor los anuncios y contenidos. Se puede medir el rendimiento de los anuncios y contenidos. Se puede obtener la percepción sobre el público que ha visto los anuncios y contenidos. Dichos datos pueden usarse para desarrollar o mejorar la experiencia del usuario, sistemas y software.

Al hacer clic en ‘Estoy De Acuerdo’ usted permitirá el uso de las cookies, identificadores de dispositivo, balizas web u otras tecnologías similares indicadas. Su configuración puede cambiarse desde el navegador de su dispositivo.

Para ciertos fines, los intereses legítimos pueden ser considerados por encima del consentimiento. Puede leer más sobre ello en nuestra Política de Privacidad y Cookies.